User: anonymous   Login
Location: Unspecified
(0.0000°N, 0.0000°E)
Time: 08:26:00
(UTC+00:00)
Language:

DMSP F15 (USA 147) - Orbit

View from above orbital plane
View from above orbital plane
View from above satellite
View from above satellite

Ground track
Ground track

The orbit data is extracted from the following two-line orbital elements,

1 25991U 99067A   19287.92228645 -.00000101 +00000-0 -28154-4 0  9990
2 25991 098.9332 252.8784 0010857 081.8173 341.2930 14.16512894025524
Epoch (UTC): 14 October 2019 22:08:05
Eccentricity: 0.0010857
inclination: 98.9332°
perigee height: 829 km
apogee height: 845 km
right ascension of ascending node: 252.8784°
argument of perigee: 81.8173°
revolutions per day: 14.16512894
mean anomaly at epoch: 341.2930°
orbit number at epoch: 2552

The dashed part of the orbit path shows where the satellite is in the earth's shadow,  

DLR